This demonstration page uses our WeatherBlox Daily Observations layout. Learn more.

Left ArrowRight Arrow

Hourly Observations for November 16, 2018

Temp ( °F °C ) Dew Point ( °F °C ) Humidity (%) Winds ( mph kmh ) Pressure ( in mb ) Visibility ( mi km ) Precip ( " mm )
12:53 am 00:53 Clear 34 1.1 27 -2.8 76 76 E 5 7 30.10 1019 10 16 0.00 0.00
1:53 am 01:53 Clear 36 2.2 26 -3.3 67 67 E 3 6 30.09 1019 10 16 0.00 0.00
2:53 am 02:53 Clear 32 0 26 -3.3 79 79 E 3 6 30.10 1019 10 16 0.00 0.00
3:53 am 03:53 Clear 31 -0.6 25 -3.9 79 79 E 6 9 30.09 1019 10 16 0.00 0.00
4:53 am 04:53 Clear 33 0.6 26 -3.3 75 75 ESE 3 6 30.08 1019 10 16 0.00 0.00
5:53 am 05:53 Clear 28 -2.2 24 -4.4 85 85 N 3 6 30.10 1019 10 16 0.00 0.00
6:53 am 06:53 Clear 27 -2.8 24 -4.4 89 89 N 7 11 30.13 1020 10 16 0.00 0.00
7:53 am 07:53 Sunny 29 -1.7 25 -3.9 85 85 NNW 5 7 30.14 1021 10 16 0.00 0.00
8:53 am 08:53 Sunny 39 3.9 30 -1.1 70 70 N 6 9 30.14 1021 10 16 0.00 0.00
9:53 am 09:53 Sunny 48 8.9 29 -1.7 48 48 Calm 30.12 1020 10 16 0.00 0.00
10:53 am 10:53 Sunny 53 11.7 27 -2.8 37 37 Calm 30.11 1020 10 16 0.00 0.00
11:53 am 11:53 Sunny 60 15.6 25 -3.9 26 26 VRB 3 6 30.07 1018 10 16 0.00 0.00
12:53 pm 12:53 Sunny 64 17.8 22 -5.6 20 20 SW 6 9 30.04 1017 10 16 0.00 0.00
1:53 pm 13:53 Sunny 66 18.9 16 -8.9 14 14 SW 12 19 30.00 1016 10 16 0.00 0.00
2:53 pm 14:53 Sunny 66 18.9 16 -8.9 14 14 SSW 7 11 29.99 1016 10 16 0.00 0.00
3:53 pm 15:53 Sunny 67 19.4 14 -10 13 13 SSW 12 19 29.98 1015 10 16 0.00 0.00
4:53 pm 16:53 Sunny 66 18.9 15 -9.4 14 14 SSW 7 11 29.97 1015 10 16 0.00 0.00
5:53 pm 17:53 Sunny 57 13.9 18 -7.8 22 22 SSE 7 11 29.99 1016 10 16 0.00 0.00
6:53 pm 18:53 Clear 51 10.6 21 -6.1 31 31 SSE 12 19 30.01 1016 10 16 0.00 0.00
7:53 pm 19:53 Clear 49 9.4 21 -6.1 33 33 SE 9 15 30.01 1016 10 16 0.00 0.00
8:53 pm 20:53 Clear 48 8.9 21 -6.1 34 34 SE 6 9 30.00 1016 10 16 0.00 0.00
9:53 pm 21:53 Clear 48 8.9 24 -4.4 39 39 SE 12 19 29.97 1015 10 16 0.00 0.00
10:53 pm 22:53 Clear 40 4.4 25 -3.9 55 55 SSE 6 9 29.98 1015 10 16 0.00 0.00
11:53 pm 23:53 Clear 38 3.3 26 -3.3 62 62 S 5 7 29.98 1015 10 16 0.00 0.00

Powered by AerisWeather